Weather History for Mansfield, OH

Change the Weather History Date:

Tuesday, January 22, 2013

  Actual Average Record
Temperature  
Mean Temperature 7 °F 25 °F  
Max Temperature 11 °F 33 °F 66 °F (1933)
Min Temperature 2 °F 18 °F -10 °F (1936)
Degree Days  
Heating Degree Days 58 40  
Month to date heating degree days 770 872  
Since 1 July heating degree days 2972 3249  
Cooling Degree Days 0 0  
Month to date cooling degree days 0 0  
Year to date cooling degree days 0 0  
Moisture  
Dew Point -2 °F    
Average Humidity 71    
Maximum Humidity 79    
Minimum Humidity 63    
Precipitation  
Precipitation 0.01 in 0.09 in 0.42 in (1962)
Month to date precipitation 1.11 2.10  
Year to date precipitation 1.11 2.10  
Snow  
Snow 0.20 in 0.40 in - ()
Month to date snowfall 1.1 9.5  
Since 1 July snowfall 13.9 22.7  
Snow Depth 1.00 in    
Sea Level Pressure  
Sea Level Pressure 30.24 in    
Wind  
Wind Speed 9 mph (WSW)    
Max Wind Speed 20 mph    
Max Gust Speed 26 mph    
Visibility 7 miles    
Events Snow    
T = Trace of Precipitation, MM = Missing Value Source: NWS Daily Summary

Daily Weather History Graph

Daily Weather History Graph

Search for Another Location

Airport:

Trip Planner

Search our weather history database for the weather conditions in past years. The results will help you decide how hot, cold, wet, or windy it might be!

Date:

Astronomy

Jan. 22, 2013 Rise Set
Actual Time 7:48 AM EST 5:35 PM EST
Civil Twilight 7:18 AM EST 6:05 PM EST
Nautical Twilight 6:45 AM EST 6:38 PM EST
Astronomical Twilight 6:12 AM EST 7:11 PM EST
Moon 1:57 PM EST (1/22) 4:09 AM EST (1/22)
Length of Visible Light 10h 46m
Length of Day
9h 47m
Waxing Gibbous, 82% of the Moon is Illuminated
Jan 22
Waxing Gibbous
Jan 26
Full
Feb 3
Last Quarter
Feb 10
New
Feb 17
First Quarter

Hourly Weather History & Observations

Time (EST) Temp. Windchill Dew Point Humidity Pressure Visibility Wind Dir Wind Speed Gust Speed Precip Events Conditions
12:52 AM 7.0 °F -8.3 °F -2.9 °F 64% 30.15 in 10.0 mi West 11.5 mph 20.7 mph N/A   Overcast
1:52 AM 6.1 °F -10.9 °F -4.0 °F 63% 30.17 in 8.0 mi West 13.8 mph 26.5 mph N/A   Overcast
2:00 AM 6.8 °F -6.9 °F -4.0 °F 61% 30.09 in 9.0 mi WSW 9.2 mph 20.7 mph N/A   Overcast
2:52 AM 5.0 °F -10.0 °F -5.1 °F 63% 30.18 in 10.0 mi WSW 10.4 mph 19.6 mph N/A   Clear
3:52 AM 5.0 °F -9.1 °F -4.0 °F 66% 30.18 in 10.0 mi WSW 9.2 mph - N/A   Clear
4:52 AM 3.9 °F -11.3 °F -4.0 °F 70% 30.19 in 10.0 mi West 10.4 mph 17.3 mph N/A   Clear
5:16 AM 5.0 °F -8.1 °F -4.0 °F 66% 30.12 in 10.0 mi WSW 8.1 mph - N/A   Mostly Cloudy
5:38 AM 3.2 °F -12.2 °F -4.0 °F 72% 30.12 in 10.0 mi West 10.4 mph - N/A   Scattered Clouds
5:52 AM 3.9 °F -11.3 °F -4.0 °F 70% 30.21 in 10.0 mi WSW 10.4 mph 17.3 mph N/A   Scattered Clouds
6:52 AM 3.9 °F -10.4 °F -4.0 °F 70% 30.24 in 10.0 mi West 9.2 mph 18.4 mph N/A   Clear
7:52 AM 3.0 °F -9.3 °F -4.0 °F 73% 30.26 in 10.0 mi West 6.9 mph - N/A   Scattered Clouds
8:39 AM 3.2 °F -12.2 °F -2.2 °F 78% 30.19 in 10.0 mi West 10.4 mph - N/A   Mostly Cloudy
8:52 AM 3.9 °F -12.2 °F -2.9 °F 73% 30.28 in 10.0 mi West 11.5 mph 17.3 mph N/A   Overcast
9:52 AM 5.0 °F -10.8 °F -2.9 °F 70% 30.30 in 10.0 mi West 11.5 mph 20.7 mph N/A   Mostly Cloudy
10:52 AM 8.1 °F -6.2 °F -2.0 °F 64% 30.32 in 4.0 mi West 10.4 mph - 0.00 in Snow Light Snow
11:03 AM 8.6 °F -6.3 °F -0.4 °F 67% 30.23 in 2.5 mi WSW 11.5 mph - 0.00 in Snow Light Snow
11:05 AM 8.6 °F -6.3 °F -0.4 °F 67% 30.23 in 4.0 mi WSW 11.5 mph - 0.00 in Snow Light Snow
11:06 AM 8.6 °F -7.0 °F -0.4 °F 67% 30.23 in 4.0 mi WSW 12.7 mph 18.4 mph 0.00 in   Haze
11:52 AM 9.0 °F -5.1 °F -2.0 °F 61% 30.31 in 8.0 mi West 10.4 mph - 0.00 in   Overcast
12:41 PM 8.6 °F -4.7 °F -2.2 °F 62% 30.21 in 9.0 mi West 9.2 mph 18.4 mph N/A   Overcast
12:52 PM 8.1 °F -6.2 °F -2.9 °F 61% 30.30 in 5.0 mi West 10.4 mph 20.7 mph 0.00 in Snow Light Snow
1:01 PM 8.6 °F -6.3 °F -2.2 °F 62% 30.21 in 7.0 mi West 11.5 mph - 0.00 in   Overcast
1:22 PM 8.6 °F -7.0 °F -2.2 °F 62% 30.20 in 7.0 mi WSW 12.7 mph 19.6 mph 0.00 in Snow Light Snow
1:52 PM 10.0 °F -4.5 °F -0.9 °F 61% 30.27 in 7.0 mi WSW 11.5 mph 19.6 mph 0.00 in   Overcast
2:52 PM 10.0 °F -4.5 °F 1.0 °F 67% 30.28 in 8.0 mi WSW 11.5 mph 20.7 mph N/A   Overcast
3:19 PM 8.6 °F -7.0 °F -0.4 °F 67% 30.20 in 3.0 mi WSW 12.7 mph 21.9 mph 0.00 in Snow Light Snow
3:52 PM 9.0 °F -5.9 °F 1.0 °F 70% 30.30 in 4.0 mi West 11.5 mph - 0.00 in Snow Light Snow
3:54 PM 8.6 °F -5.5 °F 1.4 °F 73% 30.21 in 1.8 mi WSW 10.4 mph - 0.00 in Snow Light Snow
4:13 PM 10.4 °F -6.0 °F 1.4 °F 67% 30.20 in 3.0 mi WSW 15.0 mph 21.9 mph 0.01 in Snow Light Snow
4:29 PM 8.6 °F -7.0 °F 1.4 °F 73% 30.21 in 1.8 mi West 12.7 mph 18.4 mph 0.01 in Snow Light Snow
4:46 PM 8.6 °F -4.7 °F 1.4 °F 73% 30.21 in 3.0 mi WSW 9.2 mph - 0.01 in Snow Light Snow
4:52 PM 9.0 °F -5.1 °F -0.0 °F 67% 30.30 in 6.0 mi WSW 10.4 mph - 0.01 in   Haze
5:52 PM 8.1 °F -2.0 °F 1.9 °F 76% 30.30 in 3.0 mi WSW 5.8 mph - 0.00 in Snow Light Snow
6:07 PM 8.6 °F -1.3 °F 1.4 °F 73% 30.22 in 6.0 mi WSW 5.8 mph - 0.00 in Snow Light Snow
6:45 PM 8.6 °F -3.7 °F -0.4 °F 67% 30.23 in 10.0 mi West 8.1 mph - 0.00 in   Scattered Clouds
6:52 PM 7.0 °F -4.5 °F -2.0 °F 67% 30.32 in 10.0 mi WSW 6.9 mph - 0.00 in   Partly Cloudy
7:52 PM 7.0 °F -4.5 °F -2.0 °F 67% 30.32 in 10.0 mi West 6.9 mph - N/A   Clear
8:52 PM 6.1 °F -4.3 °F -2.0 °F 69% 30.31 in 10.0 mi West 5.8 mph - N/A   Clear
9:52 PM 5.0 °F -4.1 °F -2.0 °F 73% 30.32 in 10.0 mi WSW 4.6 mph - N/A   Clear
10:52 PM 3.0 °F -4.4 °F -2.0 °F 80% 30.32 in 10.0 mi SW 3.5 mph - N/A   Clear
11:52 PM 3.9 °F -3.4 °F -2.0 °F 76% 30.32 in 10.0 mi WSW 3.5 mph - N/A   Clear